Flag for U.S.A. Weather past 2 weeks in Youngstown, Ohio, U.S.A.

Now
37 °F

Passing clouds.


Feels Like: 32 °F
Forecast: 34 / 51 °F
Wind: 7 mph from Northwest

Location: Youngstown-Warren Regional Airport

Current Time: Apr 27, 2015 at 2:39:28 AM

Latest Report: Apr 27, 2015 at 1:51 AM


Visibility: 10 mi

Pressure: 29.85 "Hg

Humidity: 79%

Dew point: 31 °F

Location of YoungstownLocation

Historic Weather in Youngstown — Graph

°F

Youngstown temperature yesterday

Maximum temperature yesterday: 56 °F (at 1:51 PM)
Minimum temperature yesterday: 34 °F (at 5:51 AM)
Average temperature yesterday: 45 °F

Past Weeks' High & Low Weather Summary

 TemperatureHumidityPressure
High79 °F (Apr 13, 3:51 PM)97% (Apr 17, 3:51 AM)30.34 "Hg (Apr 17, 3:51 AM)
Low28 °F (Apr 24, 5:51 AM)19% (Apr 15, 12:51 PM)29.41 "Hg (Apr 20, 1:51 PM)
Average50 °F57%29.97 "Hg
* Reported Apr 12 12:51 AM — Apr 27 12:51 AM, Youngstown, Weather by CustomWeather, © 2015

Note: Actual official high and low records may vary slightly from our data, if they occured in-between our weather recording intervals... More about our weather records

Advertising

Youngstown weather history for previous 24 hours

 ConditionsComfort  
Time TempWeatherWind HumidityBarometerVisibility
12:51 AM
Mon, Apr 27
38 °FPassing clouds.6 mph73%29.86 "Hg10 mi
11:51 PM
Sun, Apr 26
40 °FPassing clouds.5 mph68%29.86 "Hg10 mi
10:51 PM39 °FPassing clouds.9 mph70%29.87 "Hg10 mi
9:51 PM45 °FPassing clouds.14 mph58%29.87 "Hg10 mi
8:51 PM47 °FPartly sunny.15 mph54%29.86 "Hg10 mi
7:51 PM48 °FPartly sunny.15 mph52%29.86 "Hg10 mi
6:51 PM49 °FPartly sunny.13 mph46%29.85 "Hg10 mi
5:51 PM52 °FScattered clouds.17 mph41%29.84 "Hg10 mi
4:51 PM54 °FScattered clouds.15 mph37%29.83 "Hg10 mi
3:51 PM55 °FPassing clouds.22 mph37%29.82 "Hg10 mi
2:51 PM55 °FScattered clouds.10 mph35%29.82 "Hg10 mi
1:51 PM56 °FScattered clouds.8 mph36%29.81 "Hg10 mi
12:51 PM54 °FPassing clouds.8 mph35%29.82 "Hg10 mi
11:51 AM52 °FPassing clouds.8 mph40%29.83 "Hg10 mi
10:51 AM50 °FPassing clouds.12 mph43%29.83 "Hg10 mi
9:51 AM48 °FPassing clouds.10 mph46%29.83 "Hg10 mi
8:51 AM45 °FPassing clouds.10 mph49%29.83 "Hg10 mi
7:51 AM39 °FPassing clouds.12 mph62%29.81 "Hg10 mi
6:51 AM34 °FPassing clouds.10 mph73%29.78 "Hg10 mi
5:51 AM34 °FPassing clouds.9 mph73%29.76 "Hg10 mi
4:51 AM35 °FPassing clouds.8 mph70%29.75 "Hg10 mi
3:51 AM37 °FPassing clouds.9 mph67%29.75 "Hg10 mi
2:51 AM39 °FPartly cloudy.7 mph60%29.74 "Hg10 mi
Weather by CustomWeather, © 2015

See weather overviewHow to use our weather pages